Change the Weather History Date:

Saturday, November 12, 2011

  Actual Average (KFFM) Record (KFFM)
Temperature  
Mean Temperature 44 °F -  
Max Temperature 59 °F 36 °F 62 °F (2011)
Min Temperature 28 °F 20 °F -3 °F (1986)
Degree Days  
Heating Degree Days 22    
Moisture  
Dew Point 21 °F    
Average Humidity 49    
Maximum Humidity 69    
Minimum Humidity 25    
Precipitation  
Precipitation 0.00 in - - ()
Sea Level Pressure  
Sea Level Pressure 29.34 in    
Wind  
Wind Speed 7 mph (SSE)    
Max Wind Speed 17 mph    
Max Gust Speed 22 mph    
Visibility 10 miles    
Events      
Averages and records for this station are not official NWS values.
T = Trace of Precipitation, MM = Missing Value Source: NWS Daily Summary

Daily Weather History Graph

Daily Weather History Graph

Search for Another Location

Airport or City:

Trip Planner

Search our weather history database for the weather conditions in past years. The results will help you decide how hot, cold, wet, or windy it might be!

Date:

Astronomy

Nov. 12, 2011 Rise Set
Actual Time 7:22 AM CST 4:57 PM CST
Civil Twilight 6:50 AM CST 5:29 PM CST
Nautical Twilight 6:14 AM CST 6:06 PM CST
Astronomical Twilight 5:39 AM CST 6:41 PM CST
Moon 6:07 PM CST (11/12) 9:12 AM CST (11/12)
Length of Visible Light 10h 39m
Length of Day
9h 34m
Full, 97% of the Moon is Illuminated
Nov 12
Full
Nov 18
Last Quarter
Nov 25
New
Dec 2
First Quarter
Dec 10
Full

Hourly Weather History & Observations

Time (CST) Temp. Windchill Dew Point Humidity Pressure Visibility Wind Dir Wind Speed Gust Speed Precip Events Conditions
12:15 AM 32.0 °F 28.7 °F 19.4 °F 60% 29.48 in 10.0 mi SSE 3.5 mph - N/A   Clear
12:35 AM 30.2 °F 24.3 °F 19.4 °F 64% 29.48 in 10.0 mi South 5.8 mph - N/A   Clear
12:55 AM 30.2 °F 25.4 °F 19.4 °F 64% 29.47 in 10.0 mi SSE 4.6 mph - N/A   Clear
1:15 AM 30.2 °F 24.3 °F 19.4 °F 64% 29.47 in 10.0 mi SSE 5.8 mph - N/A   Clear
1:35 AM 30.2 °F 25.4 °F 19.4 °F 64% 29.46 in 10.0 mi SE 4.6 mph - N/A   Clear
1:55 AM 30.2 °F 24.3 °F 19.4 °F 64% 29.46 in 10.0 mi SE 5.8 mph - N/A   Clear
2:15 AM 32.0 °F 26.4 °F 19.4 °F 60% 29.46 in 10.0 mi SE 5.8 mph - N/A   Clear
2:35 AM 30.2 °F 24.3 °F 19.4 °F 64% 29.46 in 10.0 mi ESE 5.8 mph - N/A   Clear
2:55 AM 28.4 °F 22.2 °F 17.6 °F 64% 29.45 in 10.0 mi ESE 5.8 mph - N/A   Clear
3:15 AM 28.4 °F 23.3 °F 17.6 °F 64% 29.44 in 10.0 mi ESE 4.6 mph - N/A   Clear
3:35 AM 28.4 °F 22.2 °F 19.4 °F 69% 29.44 in 10.0 mi SE 5.8 mph - N/A   Clear
3:55 AM 30.2 °F 24.3 °F 19.4 °F 64% 29.44 in 10.0 mi SE 5.8 mph - N/A   Clear
4:15 AM 30.2 °F 22.6 °F 19.4 °F 64% 29.44 in 10.0 mi SE 8.1 mph - N/A   Clear
4:35 AM 30.2 °F 21.9 °F 19.4 °F 64% 29.43 in 10.0 mi SE 9.2 mph - N/A   Clear
4:55 AM 30.2 °F 22.6 °F 19.4 °F 64% 29.42 in 10.0 mi SE 8.1 mph - N/A   Clear
5:15 AM 30.2 °F 21.9 °F 19.4 °F 64% 29.42 in 10.0 mi SE 9.2 mph - N/A   Clear
5:35 AM 30.2 °F 22.6 °F 19.4 °F 64% 29.42 in 10.0 mi SE 8.1 mph - N/A   Clear
5:55 AM 30.2 °F 22.6 °F 19.4 °F 64% 29.41 in 10.0 mi SE 8.1 mph - N/A   Clear
6:15 AM 30.2 °F 22.6 °F 19.4 °F 64% 29.41 in 10.0 mi SE 8.1 mph - N/A   Clear
6:35 AM 30.2 °F 24.3 °F 19.4 °F 64% 29.41 in 10.0 mi SE 5.8 mph - N/A   Clear
6:55 AM 28.4 °F 20.4 °F 19.4 °F 69% 29.40 in 10.0 mi SE 8.1 mph - N/A   Clear
7:15 AM 28.4 °F 21.2 °F 19.4 °F 69% 29.40 in 10.0 mi SE 6.9 mph - N/A   Clear
7:35 AM 28.4 °F 21.2 °F 19.4 °F 69% 29.39 in 10.0 mi SE 6.9 mph - N/A   Clear
7:55 AM 30.2 °F 22.6 °F 19.4 °F 64% 29.39 in 10.0 mi SE 8.1 mph - N/A   Clear
8:15 AM 32.0 °F 25.6 °F 19.4 °F 60% 29.39 in 10.0 mi SE 6.9 mph - N/A   Clear
8:35 AM 32.0 °F 24.8 °F 21.2 °F 64% 29.38 in 10.0 mi SE 8.1 mph - N/A   Clear
8:55 AM 33.8 °F 26.4 °F 21.2 °F 60% 29.37 in 10.0 mi SE 9.2 mph - N/A   Clear
9:15 AM 35.6 °F 28.6 °F 21.2 °F 56% 29.37 in 10.0 mi SE 9.2 mph - N/A   Clear
9:35 AM 37.4 °F 31.4 °F 23.0 °F 56% 29.36 in 10.0 mi SE 8.1 mph - N/A   Clear
9:55 AM 41.0 °F 34.7 °F 23.0 °F 49% 29.36 in 10.0 mi SE 10.4 mph - N/A   Clear
10:15 AM 42.8 °F 37.5 °F 23.0 °F 46% 29.35 in 10.0 mi SE 9.2 mph 18.4 mph N/A   Clear
10:35 AM 42.8 °F 37.0 °F 23.0 °F 46% 29.35 in 10.0 mi SSE 10.4 mph - N/A   Clear
10:55 AM 44.6 °F 39.2 °F 23.0 °F 43% 29.35 in 10.0 mi SSE 10.4 mph - N/A   Clear
11:15 AM 44.6 °F 39.7 °F 23.0 °F 43% 29.33 in 10.0 mi SE 9.2 mph - N/A   Clear
11:35 AM 46.4 °F 41.5 °F 23.0 °F 40% 29.32 in 10.0 mi SSE 10.4 mph - N/A   Clear
11:55 AM 46.4 °F 41.5 °F 24.8 °F 43% 29.30 in 10.0 mi SE 10.4 mph - N/A   Clear
12:15 PM 50.0 °F - 24.8 °F 37% 29.29 in 10.0 mi SE 10.4 mph - N/A   Clear
12:35 PM 51.8 °F - 24.8 °F 35% 29.27 in 10.0 mi SSE 10.4 mph - N/A   Clear
12:55 PM 55.4 °F - 24.8 °F 31% 29.27 in 10.0 mi South 11.5 mph - N/A   Clear
1:15 PM 55.4 °F - 23.0 °F 29% 29.25 in 10.0 mi South 11.5 mph 18.4 mph N/A   Clear
1:35 PM 55.4 °F - 23.0 °F 29% 29.24 in 10.0 mi South 16.1 mph - N/A   Clear
1:55 PM 59.0 °F - 23.0 °F 25% 29.22 in 10.0 mi South 16.1 mph 21.9 mph N/A   Clear
2:15 PM 59.0 °F - 23.0 °F 25% 29.21 in 10.0 mi South 12.7 mph - N/A   Clear
2:35 PM 59.0 °F - 23.0 °F 25% 29.21 in 10.0 mi South 17.3 mph 20.7 mph N/A   Clear
2:55 PM 59.0 °F - 23.0 °F 25% 29.19 in 10.0 mi SSE 15.0 mph - N/A   Clear
3:15 PM 57.2 °F - 23.0 °F 27% 29.19 in 10.0 mi SSE 10.4 mph - N/A   Clear
3:35 PM 57.2 °F - 24.8 °F 29% 29.17 in 10.0 mi South 9.2 mph - N/A   Clear
3:55 PM 55.4 °F - 23.0 °F 29% 29.17 in 10.0 mi South 13.8 mph - N/A   Clear
4:15 PM 55.4 °F - 23.0 °F 29% 29.18 in 10.0 mi SW 10.4 mph - N/A   Clear
4:35 PM 53.6 °F - 21.2 °F 28% 29.17 in 10.0 mi SSW 6.9 mph - N/A   Clear
4:55 PM 53.6 °F - 21.2 °F 28% 29.17 in 10.0 mi SSW 6.9 mph - N/A   Clear
5:15 PM 50.0 °F - 21.2 °F 32% 29.18 in 10.0 mi SW 5.8 mph - N/A   Clear
5:35 PM 50.0 °F - 21.2 °F 32% 29.18 in 10.0 mi SW 8.1 mph - N/A   Clear
5:55 PM 50.0 °F - 21.2 °F 32% 29.16 in 10.0 mi SW 6.9 mph - N/A   Clear
6:15 PM 46.4 °F 42.9 °F 21.2 °F 37% 29.16 in 10.0 mi SW 6.9 mph - N/A   Clear
6:35 PM 41.0 °F 35.8 °F 19.4 °F 42% 29.16 in 10.0 mi South 8.1 mph - N/A   Clear
6:55 PM 42.8 °F 38.0 °F 19.4 °F 39% 29.16 in 10.0 mi SW 8.1 mph - N/A   Clear
7:15 PM 42.8 °F 38.6 °F 19.4 °F 39% 29.16 in 10.0 mi WSW 6.9 mph - N/A   Clear
7:35 PM 39.2 °F 34.2 °F 19.4 °F 45% 29.16 in 10.0 mi WSW 6.9 mph - N/A   Clear
7:55 PM 39.2 °F 33.6 °F 21.2 °F 49% 29.16 in 10.0 mi WSW 8.1 mph - N/A   Clear
8:15 PM 41.0 °F 38.0 °F 21.2 °F 45% 29.15 in 10.0 mi SW 4.6 mph - N/A   Clear
8:35 PM 37.4 °F 32.8 °F 19.4 °F 48% 29.15 in 10.0 mi WSW 5.8 mph - N/A   Clear
8:55 PM 37.4 °F 33.8 °F 19.4 °F 48% 29.15 in 10.0 mi SW 4.6 mph - N/A   Clear
9:15 PM 39.2 °F 33.6 °F 21.2 °F 49% 29.15 in 10.0 mi West 8.1 mph - N/A   Clear
9:35 PM 37.4 °F 32.8 °F 19.4 °F 48% 29.14 in 10.0 mi West 5.8 mph - N/A   Clear
9:55 PM 39.2 °F 33.6 °F 21.2 °F 49% 29.14 in 10.0 mi West 8.1 mph - N/A   Clear
10:15 PM 37.4 °F 32.8 °F 21.2 °F 52% 29.13 in 10.0 mi West 5.8 mph - N/A   Clear
10:35 PM 37.4 °F 31.4 °F 21.2 °F 52% 29.15 in 10.0 mi West 8.1 mph - N/A   Clear
10:55 PM 35.6 °F 31.7 °F 21.2 °F 56% 29.15 in 10.0 mi West 4.6 mph - N/A   Clear
11:15 PM 37.4 °F 34.9 °F 23.0 °F 56% 29.13 in 10.0 mi WNW 3.5 mph - N/A   Clear
11:35 PM 35.6 °F 28.6 °F 23.0 °F 60% 29.15 in 10.0 mi WNW 9.2 mph - N/A   Clear
11:55 PM 37.4 °F 29.8 °F 23.0 °F 56% 29.16 in 10.0 mi WNW 11.5 mph - N/A   Clear